This is the latest recevied weather packets stored in our database for station/object KE5OYL. If no packets are shown the sender has not sent any weather packets the latest 1 day(s).
| Time | Temp. | Humidity | Pressure | Rain* | Wind** | Luminosity | Snow |
|---|---|---|---|---|---|---|---|
| 1778051859 | 17.22° C | 74% | 1010.4 hPa | 0 mm | - | 0 W/m² | - |
| 1778051253 | 16.67° C | 75% | 1010.2 hPa | 0 mm | - | 0 W/m² | - |
| 1778050950 | 16.67° C | 75% | 1010.2 hPa | 0 mm | - | 0 W/m² | - |
| 1778050648 | 16.67° C | 75% | 1010.3 hPa | 0 mm | - | 0 W/m² | - |
| 1778050345 | 16.67° C | 75% | 1010.2 hPa | 0 mm | - | 0 W/m² | - |
| 1778050041 | 16.67° C | 75% | 1010.4 hPa | 0 mm | - | 0 W/m² | - |
| 1778049737 | 17.22° C | 75% | 1010 hPa | 0 mm | - | 0 W/m² | - |
| 1778049435 | 17.22° C | 75% | 1010.1 hPa | 0 mm | - | 0 W/m² | - |
| 1778049132 | 17.22° C | 75% | 1010.2 hPa | 0 mm | - | 0 W/m² | - |
| 1778048527 | 17.22° C | 75% | 1010 hPa | 0 mm | - | 0 W/m² | - |
| 1778048223 | 17.22° C | 75% | 1010 hPa | 0 mm | - | 0 W/m² | - |
| 1778047921 | 17.22° C | 74% | 1010.2 hPa | 0 mm | - | 0 W/m² | - |
| 1778046709 | 17.78° C | 75% | 1010.1 hPa | 0 mm | - | 0 W/m² | - |
| 1778046407 | 18.33° C | 75% | 1010.1 hPa | 0 mm | - | 0 W/m² | - |
| 1778045800 | 18.33° C | 75% | 1010 hPa | 0 mm | - | 0 W/m² | - |
| 1778045197 | 18.89° C | 75% | 1010 hPa | 0 mm | - | 0 W/m² | - |
| 1778044287 | 18.89° C | 74% | 1009.8 hPa | 0 mm | - | 0 W/m² | - |
| 1778043986 | 18.89° C | 74% | 1009.9 hPa | 0 mm | - | 0 W/m² | - |
| 1778043682 | 18.89° C | 75% | 1009.8 hPa | 0 mm | - | 0 W/m² | - |
| 1778043379 | 18.89° C | 74% | 1009.7 hPa | 0 mm | - | 0 W/m² | - |
| 1778043076 | 19.44° C | 74% | 1009.8 hPa | 0 mm | - | 0 W/m² | - |
| 1778042774 | 20° C | 73% | 1009.8 hPa | 0 mm | - | 0 W/m² | - |
| 1778042470 | 19.44° C | 74% | 1009.7 hPa | 0 mm | - | 0 W/m² | - |
| 1778041866 | 20° C | 74% | 1009.8 hPa | 0 mm | - | 0 W/m² | - |
| 1778041565 | 20.56° C | 72% | 1009.5 hPa | 0 mm | - | 0 W/m² | - |
* Rain latest hour (hover to see other rain measurements)
** Current wind speed in m/s (hover to see current wind gust speed)